Location: ???????
(55.3754°N, 39.3545°E)
Time: 19:24:54
(UTC+00:00)

Cosmos 1378 Rocket - Pass Details

Date: 14 April 2026
Orbit: 594 x 620 km, 82.5° (Epoch: 19 May)

Event Time Altitude Azimuth Distance (km) Brightness Sun altitude
Rises 17:20:25 0° 352° (N) 2,911 7.6 -7.9°
Reaches altitude 10° 17:22:49 10° 1° (N) 1,998 6.6 -8.2°
Maximum altitude 17:26:55 36° 69° (ENE) 990 4.3 -8.7°
Enters shadow 17:30:41 12° 134° (SE) 1,874 5.4 -9.2°
